00:01
Airports
History
Links
Donate
Help keep this website running!
PayPal
Bitcoin
This page is community maintained. The information is intended for PC simulator navigation or reference.
Always use approved charts for navigation.
ENNA
BANAK
BANAK (ENNA)
Lakselv, Finnmark, Norway (9700)
(C)
Lat/Lng:70° 4' 7.73" N / 24° 58' 24.56" E
70.068813 / 24.973489
Elevation:25'ft / 8mMSL
ID / ICAO:ENNA
Runways:1
Longest:17-35
Asphalt 2,768m / 9,082ft
Controlled:Yes
METAR23:50 GMT 2018-01-23
Altimeter: 29.85
Visibility: 6.2 statute miles
Wind: 14 knots (from 180°)
Temp: -19°c / -2°f
Humidity: 77.0%

METAR: ENNA 232350Z AUTO 18014KT 9999 NCD M19/M22 Q1011 RMK WIND 1800FT 18021KT

(Powered by phpweather)
Airport Radio Frequencies
Tower: 118.05, 118.9, 122.1
Nearby VORs <50NM
Nearby NDBs
Runway 17 / 35
Dimensions:2768.1 x 45.1m 9082' x 148'ft
Surface:Asphalt
Edge Lights:High intensity
Runway 17 [A]Runway 35 [B]
Heading:175°TH 355°TH
Lat:
Lng:
70° 4' 52.49"N
24° 58' 14.07"E
70° 3' 22.96"N
24° 58' 35.05"E
ALS:MALSMALS
User Notes and Comments
70° 4' 7.73" N / 24° 58' 24.56" E
Distance To
Airport ID:
Nearby Airports
(C) ALTA 38.5 NM
ENAT ( WX ) W 260°
(C) Hammerfest 51.9 NM
ENHF ( WX ) NW 324°
(C) Honningsvaag Valan 69.0 NM
ENHV ( WX ) NNE 19°
(U) HASVIK 72.0 NM
ENHK WNW 293°
(C) Kautokeino 85.0 NM
ENKA SSW 213°
(C) Mehamn 93.3 NM
ENMH NE 44°
(U) Jakalapaa 95.7 NM
EFJP SSE 168°
VFR Chart
Flight Planning at SkyVector.com